Time,TemperatureF,DewpointF,PressureIn,WindDirection,WindDirectionDegrees,WindSpeedMPH,WindSpeedGustMPH,Humidity,HourlyPrecipIn,Conditions,Clouds,dailyrainin,SoftwareType,DateUTC
2013-09-08 00:04:00,60.4,57.5,29.72,SSW,202,0.0,-999.0,90,-99.99,,,0.00,Acu-Link.com,2013-09-08 04:04:00,
2013-09-08 00:19:00,60.4,57.5,29.72,SSW,202,0.0,-999.0,90,-99.99,,,0.00,Acu-Link.com,2013-09-08 04:19:00,
2013-09-08 00:35:00,60.4,57.5,29.72,SSW,202,0.0,-999.0,90,-99.99,,,0.00,Acu-Link.com,2013-09-08 04:35:00,
2013-09-08 00:50:00,60.4,57.5,29.71,SSW,202,0.0,-999.0,90,-99.99,,,0.00,Acu-Link.com,2013-09-08 04:50:00,
2013-09-08 01:05:00,60.6,57.6,29.71,SSW,202,0.0,-999.0,90,-99.99,,,0.00,Acu-Link.com,2013-09-08 05:05:00,
2013-09-08 01:21:00,60.6,57.6,29.71,SSW,202,0.0,-999.0,90,-99.99,,,0.00,Acu-Link.com,2013-09-08 05:21:00,
2013-09-08 01:36:00,60.6,57.6,29.70,SSW,202,0.0,-999.0,90,-99.99,,,0.00,Acu-Link.com,2013-09-08 05:36:00,
2013-09-08 01:51:00,60.6,57.6,29.70,SSW,202,0.0,-999.0,90,-99.99,,,0.00,Acu-Link.com,2013-09-08 05:51:00,
2013-09-08 02:07:00,60.6,57.6,29.69,SSW,202,0.0,-999.0,90,-99.99,,,0.00,Acu-Link.com,2013-09-08 06:07:00,
2013-09-08 02:22:00,60.6,57.6,29.69,SSW,202,0.0,-999.0,90,-99.99,,,0.00,Acu-Link.com,2013-09-08 06:22:00,
2013-09-08 02:37:00,60.6,57.6,29.69,SSW,202,0.0,-999.0,90,-99.99,,,0.00,Acu-Link.com,2013-09-08 06:37:00,
2013-09-08 02:52:00,60.6,57.6,29.69,SSW,202,0.0,-999.0,90,-99.99,,,0.00,Acu-Link.com,2013-09-08 06:52:00,
2013-09-08 03:08:00,60.6,57.6,29.68,SSW,202,0.0,-999.0,90,-99.99,,,0.00,Acu-Link.com,2013-09-08 07:08:00,
2013-09-08 03:23:00,60.8,57.8,29.68,SSW,202,0.0,-999.0,90,-99.99,,,0.00,Acu-Link.com,2013-09-08 07:23:00,
2013-09-08 03:38:00,60.6,57.6,29.67,SSW,202,0.0,-999.0,90,-99.99,,,0.00,Acu-Link.com,2013-09-08 07:38:00,
2013-09-08 03:54:00,60.6,57.6,29.67,SSW,202,0.0,-999.0,90,-99.99,,,0.00,Acu-Link.com,2013-09-08 07:54:00,
2013-09-08 04:09:00,60.6,57.6,29.67,SSW,202,0.0,-999.0,90,-99.99,,,0.00,Acu-Link.com,2013-09-08 08:09:00,
2013-09-08 04:24:00,60.6,57.6,29.67,SSW,202,0.0,-999.0,90,-99.99,,,0.00,Acu-Link.com,2013-09-08 08:24:00,
2013-09-08 04:40:00,60.6,57.6,29.67,SSW,202,0.0,-999.0,90,-99.99,,,0.00,Acu-Link.com,2013-09-08 08:40:00,
2013-09-08 04:55:00,60.6,57.6,29.66,SSW,202,0.0,-999.0,90,-99.99,,,0.00,Acu-Link.com,2013-09-08 08:55:00,
2013-09-08 05:10:00,60.6,57.6,29.65,SSW,202,0.0,-999.0,90,-99.99,,,0.00,Acu-Link.com,2013-09-08 09:10:00,
2013-09-08 05:25:00,60.8,57.8,29.65,SSW,202,0.0,-999.0,90,-99.99,,,0.00,Acu-Link.com,2013-09-08 09:25:00,
2013-09-08 05:40:00,60.8,57.8,29.66,SSW,202,0.0,-999.0,90,-99.99,,,0.00,Acu-Link.com,2013-09-08 09:40:00,
2013-09-08 05:56:00,60.8,57.8,29.66,SSW,202,0.0,-999.0,90,-99.99,,,0.00,Acu-Link.com,2013-09-08 09:56:00,
2013-09-08 06:11:00,61.0,58.0,29.67,SSW,202,0.0,-999.0,90,-99.99,,,0.00,Acu-Link.com,2013-09-08 10:11:00,
2013-09-08 06:26:00,61.0,58.0,29.67,SSW,202,0.0,-999.0,90,-99.99,,,0.00,Acu-Link.com,2013-09-08 10:26:00,
2013-09-08 06:42:00,61.3,58.3,29.67,SSW,202,0.0,-999.0,90,-99.99,,,0.00,Acu-Link.com,2013-09-08 10:42:00,
2013-09-08 06:57:00,61.3,58.3,29.67,SSW,202,1.1,-999.0,90,-99.99,,,0.00,Acu-Link.com,2013-09-08 10:57:00,
2013-09-08 07:12:00,61.3,58.6,29.67,SW,225,0.0,-999.0,91,-99.99,,,0.01,Acu-Link.com,2013-09-08 11:12:00,
2013-09-08 07:27:00,61.5,58.8,29.67,SSW,202,1.7,-999.0,91,-99.99,,,0.01,Acu-Link.com,2013-09-08 11:27:00,
2013-09-08 07:43:00,61.5,58.8,29.67,SSW,202,0.0,-999.0,91,-99.99,,,0.01,Acu-Link.com,2013-09-08 11:43:00,
2013-09-08 07:58:00,62.2,59.5,29.68,SSW,202,0.0,-999.0,91,-99.99,,,0.01,Acu-Link.com,2013-09-08 11:58:00,
2013-09-08 08:13:00,63.3,60.6,29.67,SSW,202,1.1,-999.0,91,-99.99,,,0.01,Acu-Link.com,2013-09-08 12:13:00,
2013-09-08 08:29:00,64.0,60.4,29.67,SSW,202,2.7,-999.0,88,-99.99,,,0.01,Acu-Link.com,2013-09-08 12:29:00,
2013-09-08 08:44:00,65.3,61.0,29.68,WSW,247,1.7,-999.0,86,-99.99,,,0.01,Acu-Link.com,2013-09-08 12:44:00,
2013-09-08 08:59:00,66.6,61.6,29.68,WNW,292,1.1,-999.0,84,-99.99,,,0.01,Acu-Link.com,2013-09-08 12:59:00,
2013-09-08 09:15:00,67.3,61.6,29.69,SW,225,2.2,-999.0,82,-99.99,,,0.01,Acu-Link.com,2013-09-08 13:15:00,
2013-09-08 09:30:00,67.1,61.4,29.69,South,180,3.2,-999.0,82,-99.99,,,0.01,Acu-Link.com,2013-09-08 13:30:00,
2013-09-08 09:45:00,67.6,61.9,29.69,NW,315,1.1,-999.0,82,-99.99,,,0.01,Acu-Link.com,2013-09-08 13:45:00,
2013-09-08 10:01:00,69.1,61.9,29.69,ENE,67,2.2,-999.0,78,-99.99,,,0.01,Acu-Link.com,2013-09-08 14:01:00,
2013-09-08 10:16:00,69.8,61.1,29.70,WNW,292,0.0,-999.0,74,-99.99,,,0.01,Acu-Link.com,2013-09-08 14:16:00,
2013-09-08 10:31:00,68.5,59.1,29.72,North,0,0.0,-999.0,72,-99.99,,,0.01,Acu-Link.com,2013-09-08 14:31:00,
2013-09-08 10:46:00,67.5,58.9,29.72,SSW,202,3.2,-999.0,74,-99.99,,,0.01,Acu-Link.com,2013-09-08 14:46:00,
2013-09-08 11:02:00,65.7,57.6,29.72,NNW,337,4.7,-999.0,75,-99.99,,,0.01,Acu-Link.com,2013-09-08 15:02:00,
2013-09-08 11:17:00,66.6,58.4,29.73,South,180,0.0,-999.0,75,-99.99,,,0.01,Acu-Link.com,2013-09-08 15:17:00,
2013-09-08 11:32:00,69.1,60.1,29.73,ESE,112,2.7,-999.0,73,-99.99,,,0.01,Acu-Link.com,2013-09-08 15:32:00,
2013-09-08 11:47:00,69.4,58.4,29.73,ESE,112,1.1,-999.0,68,-99.99,,,0.01,Acu-Link.com,2013-09-08 15:47:00,
2013-09-08 12:02:00,71.2,59.7,29.73,SE,135,1.7,-999.0,67,-99.99,,,0.01,Acu-Link.com,2013-09-08 16:02:00,
2013-09-08 12:18:00,71.8,58.1,29.73,SSE,157,3.2,-999.0,62,-99.99,,,0.01,Acu-Link.com,2013-09-08 16:18:00,
2013-09-08 12:33:00,71.2,59.7,29.73,SE,135,1.7,-999.0,67,-99.99,,,0.01,Acu-Link.com,2013-09-08 16:33:00,
2013-09-08 12:48:00,72.5,58.3,29.74,WSW,247,3.2,-999.0,61,-99.99,,,0.01,Acu-Link.com,2013-09-08 16:48:00,
2013-09-08 13:04:00,72.1,51.9,29.74,ESE,112,6.8,-999.0,49,-99.99,,,0.01,Acu-Link.com,2013-09-08 17:04:00,
2013-09-08 13:19:00,72.5,50.5,29.73,WSW,247,4.2,-999.0,46,-99.99,,,0.01,Acu-Link.com,2013-09-08 17:19:00,
2013-09-08 13:34:00,73.6,51.5,29.74,WSW,247,2.2,-999.0,46,-99.99,,,0.01,Acu-Link.com,2013-09-08 17:34:00,
2013-09-08 13:49:00,74.1,51.4,29.74,WNW,292,2.2,-999.0,45,-99.99,,,0.01,Acu-Link.com,2013-09-08 17:49:00,
2013-09-08 14:05:00,72.5,48.7,29.75,SW,225,4.7,-999.0,43,-99.99,,,0.01,Acu-Link.com,2013-09-08 18:05:00,
2013-09-08 14:20:00,73.8,49.3,29.75,SW,225,5.8,-999.0,42,-99.99,,,0.01,Acu-Link.com,2013-09-08 18:20:00,
2013-09-08 14:35:00,74.5,49.9,29.76,SW,225,3.7,-999.0,42,-99.99,,,0.01,Acu-Link.com,2013-09-08 18:35:00,
2013-09-08 14:51:00,74.7,51.3,29.76,SSE,157,5.3,-999.0,44,-99.99,,,0.01,Acu-Link.com,2013-09-08 18:51:00,
2013-09-08 15:06:00,73.9,50.0,29.76,SSE,157,1.7,-999.0,43,-99.99,,,0.01,Acu-Link.com,2013-09-08 19:06:00,
2013-09-08 15:21:00,73.8,49.9,29.76,West,270,2.2,-999.0,43,-99.99,,,0.01,Acu-Link.com,2013-09-08 19:21:00,
2013-09-08 15:37:00,74.1,50.2,29.76,SSW,202,4.2,-999.0,43,-99.99,,,0.01,Acu-Link.com,2013-09-08 19:37:00,
2013-09-08 15:52:00,74.3,51.6,29.77,South,180,1.1,-999.0,45,-99.99,,,0.01,Acu-Link.com,2013-09-08 19:52:00,
2013-09-08 16:07:00,73.8,48.0,29.77,SSW,202,5.8,-999.0,40,-99.99,,,0.01,Acu-Link.com,2013-09-08 20:07:00,
2013-09-08 16:22:00,72.9,46.5,29.77,ESE,112,5.3,-999.0,39,-99.99,,,0.01,Acu-Link.com,2013-09-08 20:22:00,
2013-09-08 16:38:00,72.1,49.0,29.77,NW,315,1.7,-999.0,44,-99.99,,,0.01,Acu-Link.com,2013-09-08 20:38:00,
2013-09-08 16:53:00,74.7,48.8,29.78,North,0,2.7,-999.0,40,-99.99,,,0.01,Acu-Link.com,2013-09-08 20:53:00,
2013-09-08 17:08:00,71.8,44.8,29.79,SSE,157,4.2,-999.0,38,-99.99,,,0.01,Acu-Link.com,2013-09-08 21:08:00,
2013-09-08 17:23:00,69.8,44.4,29.80,South,180,3.7,-999.0,40,-99.99,,,0.01,Acu-Link.com,2013-09-08 21:23:00,
2013-09-08 17:38:00,67.8,43.2,29.80,ESE,112,2.7,-999.0,41,-99.99,,,0.01,Acu-Link.com,2013-09-08 21:38:00,
2013-09-08 17:54:00,67.1,45.0,29.81,WNW,292,0.0,-999.0,45,-99.99,,,0.01,Acu-Link.com,2013-09-08 21:54:00,
2013-09-08 18:09:00,66.2,43.6,29.81,NE,45,1.1,-999.0,44,-99.99,,,0.01,Acu-Link.com,2013-09-08 22:09:00,
2013-09-08 18:24:00,65.1,46.0,29.82,WNW,292,0.0,-999.0,50,-99.99,,,0.01,Acu-Link.com,2013-09-08 22:24:00,
2013-09-08 18:40:00,64.0,45.0,29.83,NE,45,0.0,-999.0,50,-99.99,,,0.01,Acu-Link.com,2013-09-08 22:40:00,
2013-09-08 18:55:00,63.0,45.1,29.84,ESE,112,0.0,-999.0,52,-99.99,,,0.01,Acu-Link.com,2013-09-08 22:55:00,
2013-09-08 19:10:00,61.5,44.2,29.85,ESE,112,0.0,-999.0,53,-99.99,,,0.01,Acu-Link.com,2013-09-08 23:10:00,
2013-09-08 19:26:00,60.3,44.5,29.86,SSW,202,0.0,-999.0,56,-99.99,,,0.01,Acu-Link.com,2013-09-08 23:26:00,
2013-09-08 19:41:00,59.0,43.8,29.87,SSW,202,0.0,-999.0,57,-99.99,,,0.01,Acu-Link.com,2013-09-08 23:41:00,
2013-09-08 19:57:00,58.3,44.0,29.88,SSW,202,0.0,-999.0,59,-99.99,,,0.01,Acu-Link.com,2013-09-08 23:57:00,
2013-09-08 20:12:00,57.2,45.1,29.90,SSW,202,0.0,-999.0,64,-99.99,,,0.01,Acu-Link.com,2013-09-09 00:12:00,
2013-09-08 20:27:00,56.1,44.9,29.91,SSW,202,0.0,-999.0,66,-99.99,,,0.01,Acu-Link.com,2013-09-09 00:27:00,
2013-09-08 20:42:00,55.4,45.0,29.92,SSW,202,0.0,-999.0,68,-99.99,,,0.01,Acu-Link.com,2013-09-09 00:42:00,
2013-09-08 20:58:00,54.5,45.3,29.92,SSW,202,0.0,-999.0,71,-99.99,,,0.01,Acu-Link.com,2013-09-09 00:58:00,
2013-09-08 21:13:00,53.8,45.4,29.93,SSW,202,0.0,-999.0,73,-99.99,,,0.01,Acu-Link.com,2013-09-09 01:13:00,
2013-09-08 21:28:00,52.9,45.2,29.94,SSW,202,0.0,-999.0,75,-99.99,,,0.01,Acu-Link.com,2013-09-09 01:28:00,
2013-09-08 21:44:00,52.3,45.3,29.94,SSW,202,0.0,-999.0,77,-99.99,,,0.01,Acu-Link.com,2013-09-09 01:44:00,
2013-09-08 21:59:00,52.0,45.4,29.95,SSW,202,0.0,-999.0,78,-99.99,,,0.01,Acu-Link.com,2013-09-09 01:59:00,
2013-09-08 22:14:00,51.3,45.0,29.95,SSW,202,0.0,-999.0,79,-99.99,,,0.01,Acu-Link.com,2013-09-09 02:14:00,
2013-09-08 22:30:00,51.3,44.3,29.95,SSW,202,0.0,-999.0,77,-99.99,,,0.01,Acu-Link.com,2013-09-09 02:30:00,
2013-09-08 22:45:00,50.7,43.8,29.96,SSW,202,0.0,-999.0,77,-99.99,,,0.01,Acu-Link.com,2013-09-09 02:45:00,
2013-09-08 23:00:00,50.2,43.3,29.97,SSW,202,0.0,-999.0,77,-99.99,,,0.01,Acu-Link.com,2013-09-09 03:00:00,
2013-09-08 23:15:00,49.3,43.4,29.98,SSW,202,0.0,-999.0,80,-99.99,,,0.01,Acu-Link.com,2013-09-09 03:15:00,
2013-09-08 23:31:00,48.6,42.7,29.99,SSW,202,0.0,-999.0,80,-99.99,,,0.01,Acu-Link.com,2013-09-09 03:31:00,
2013-09-08 23:46:00,48.0,42.5,29.99,SSW,202,0.0,-999.0,81,-99.99,,,0.01,Acu-Link.com,2013-09-09 03:46:00,